Погода в Кыштовке

Погода в Кыштовке : погода сейчас, прогноз погоды и архив. Всё, что Вы хотите узнать о погоде в Кыштовке!

Хотите узнать прогноз погоды в Кыштовке? Тогда Вам сюда: Погода в Кыштовке

Поиск расширенной информации на нашем сайте:

Другие новости

Новости СМИ2

Главная страница сайта

Новости сайта

03.07.2017

Напоминаем, что на нашем специализированном сайте Метеоцентр.Азия вы можете получить высокодетализированные автоматические прогнозы погоды по пунктам России, СНГ и мира в авиационном формате (включающие направление и скорость ветра, видимость, явления погоды, количество и форму облачности, нижнюю и верхнюю границу облачности).


Погода в Кыштовке - сегодня

Время (UTC), дата Ветер
(°,м/с) 
Видим.   Явления Облачность Т
(°С)
Тd
(°С)
f(%) Тe
(°С)
Pmin
(гПа)
dP
(гПа)
Po
(мм)
O2
(г/м3)
Тmin Tmax R s Состояние
почвы
09 16.09.17 300 (СЗ) 5{11}  10 км    10/8 600 м средняя 
[Sc|Ac trans]
+16.4 +8.1 58 +16  1012.6  2.2  749  283           
12 16.09.17 310 (СЗ) 4{10}  10 км    9/6 600 м средняя, верхняя 
[Sc|Ac trans|Ci fib]
+16.3 +8.1 58 +16  1014.2  1.6  750  284    +17.4       
15 16.09.17 360 (С) 10 км    1/1 600 м 
[Sc]
+8.6 +7.2 91 +10  1015.7  751  292           
18 16.09.17 050 (СВ) 10 км    ясно 
+3.3 +2.3 93 +4  1016.6  0.7  752  299           
21 16.09.17 110 (В) 10 км    ясно 
+2.8 +1.8 93 +4  1016.4  -0.2  752  299           
00 17.09.17 130 (ЮВ) 10 км    4/0 средняя, верхняя 
[Ac trans|Ci fib]
+4.5 +3.7 95 +5  1014.9  -1.4  750  297  +2.7        сухая 
03 17.09.17 170 (Ю) 10 км    6/0 средняя, верхняя 
[Ac trans|Ci fib]
+10.9 +9 88 +11  1013  -1.4  749  289           
06 17.09.17 190 (Ю) 10 км    8/0 средняя, верхняя 
[Ac trans|Ci fib]
+21.1 +8.5 44 +21  1009.7  -2.8  747  278           
09 17.09.17 180 (Ю) 10 км    8/3 600 м кучево-дожд., средняя, верхняя 
[Cb calv|Ac trans|Ci fib]
+24.4 +6.2 31 +24  1006.3  -3.2  745  275           
12 17.09.17 270 (З) 5{12}  10 км    9/6 600 м кучево-дожд., средняя, верхняя 
[Cb calv|Ac trans|Ci fib]
+20.1 +10.2 53 +22  1006.8  0.2  745  278    +24.4       
15 17.09.17 250 (З) 10 км    4/3 600 м верхняя 
[Sc|Ci fib]
+14.2 +9.3 72 +15  1008  746  284           
18 17.09.17 240 (ЮЗ) 10 км    4/0 средняя, верхняя 
[Ac trans|Ci fib]
+9.4 +7.2 86 +9  1008.3  746  289           
21 17.09.17 220 (ЮЗ) 10 км    ясно 
+5.2 +4 92 +5  1008.5  746  294           
00 18.09.17 230 (ЮЗ) 4000 м  дымка  1/1 600 м 
[Sc]
+5 +4 93 +6  1008.9  0.4  746  295  +5        сухая 
03 18.09.17 250 (З) 10 км    1/0 верхняя 
[Ci sp]
+9.8 +7.4 85 +9  1009  0.3  746  289  +4.7         
06 18.09.17 260 (З) 10 км    8/8 1000 м 
[Cu hum]
+16.6 +5.8 49 +16  1008.3  -0.3  746  282           
09 18.09.17 240 (ЮЗ) 5{11}  10 км    10/6 1000 м кучево-дожд., верхняя 
[Cb calv|Cc]
+16.5 +4.3 44 +16  1007.7  -0.7  746  283           
12 18.09.17 240 (ЮЗ) 10 км    9/3 600 м кучево-дожд., верхняя 
[Cb calv|Cc]
+15.1 +5 51 +15  1006.8  -0.9  745  284    +17.2       
15 18.09.17 300 (СЗ) 10 км    10/5 600 м кучево-дожд., средняя 
[Cb calv|Ac trans]
+11.4 +5.1 65 +12  1008  746  288           
18 18.09.17 250 (З) 10 км    10/6 600 м кучево-дожд., средняя 
[Cb calv|Ac trans]
+8.9 +7.3 90 +9  1008.1  746  290           
21 18.09.17 280 (З) 10 км    6/3 600 м кучево-дожд., средняя 
[Cb calv|Ac trans]
+8.7 +7.4 92 +9  1008.7  0.6  746  290           
00 19.09.17 280 (З) 10 км    10/6 300 м кучево-дожд., средняя 
[Cb calv|Ac trans]
+8.2 +6.4 88 +7  1010.2  1.4  747  291  +8.1        сухая 
03 19.09.17 290 (З) 10 км  {ливн. осадки}  10/8 300 м кучево-дожд., средняя 
[Cb calv|Ac trans]
+8.5 +6 84 +7  1011.7  1.5  748  291  +7.8         
06 19.09.17 300 (СЗ) 5{10}  10 км  {ливн. осадки}  8/8 300 м кучево-дожд. 
[Cb calv]
+10.3 +4.9 69 +9  1013.2  1.6  749  290           
09 19.09.17 280 (З) 10 км    10/8 300 м кучево-дожд., средняя, верхняя 
[Cb calv|Ac trans|Ci fib]
+11.4 +4.8 64 +10  1014.8  1.6  751  290           
Время (UTC), дата Ветер
(°,м/с) 
Видим.   Явления Облачность Т
(°С)
Тd
(°С)
f(%) Тe
(°С)
Pmin
(гПа)
dP
(гПа)
Po
(мм)
O2
(г/м3)
Тmin Tmax R s Состояние
почвы

Для получения пояснительной информации подведите курсор к названию столбца.

ПОГОДА в Кыштовке - архив

Всё, что Вы хотите узнать о погоде в Кыштовке - удобно и подробно!

Выберите нужную дату (начиная с 1 января 2015* года) и нажмите кнопку "Найти".
Будут отображены архивные сводки погоды по пункту Кыштовка, начиная с указанной даты.


Отображать данные в формате CSV (для использования в таблицах Excel)


Внимание! Наш архив погоды предназначен исключительно для личного некоммерческого использования в познавательных целях. Если Вам необходимы официальные справки о состоянии погоды (для производственных, юридических, коммерческих и т.п. целей), обращайтесь в органы Росгидромета.

*Примечание: данная дата относится к архиву по метеостанциям СССР (Россия, СНГ, Балтия).
Архив по метеостанциям Зарубежной Европы и Азии (кроме Китая) хранится 10 дней, по другим регионам земного шара (Китай, Африка, Америка, Австралия, Океания) - 1 день.

Кыштовка - район местоположения метеостанции


Название, широта, долгота, высота метеостанции:
Кыштовка 56.6°ш. 76.9°д. 116 м над ур. моря [Российская Федерация]

Дополнительная информация

В oтличие oт бoльшинства пoгoдных сайтoв мы публикуем пoдрoбную метеoинфoрмацию в детальнoм прoфессиoнальнoм фoрмате.

Характеристики температуры и влажнoсти вoздуха измеряются на высoте 2 м в тени вдали oт зданий и деревьев.
Скoрoсть ветра измеряется на высoте 10 м (на урoвне рoста челoвека скoрoсть ветра ниже в 1.5-2 раза). Если метеoстанция нахoдится в гoрoде или в лесу, тo скoрoсть ветра занижена на 2-4 м/с пo сравнению с oткрытым местoм. Скoрoсть ветра над акватoриями крупных рек и oзёр, а также на вершинах хoлмoв на 2-5 м/с выше, чем в oбычных услoвиях.
Атмoсфернoе давление в разных тoчках местнoсти мoжет значительнo oтличаться oт давления на метеoстанции, в зависимoсти oт услoвий рельефа (при пoдъёме на 10 м давление пoнижается примернo на 1 мм рт.ст.).